MDT,Max TemperatureF,Mean TemperatureF,Min TemperatureF,Max Dew PointF,MeanDew PointF,Min DewpointF,Max Humidity, Mean Humidity, Min Humidity, Max Sea Level PressureIn, Mean Sea Level PressureIn, Min Sea Level PressureIn, Max VisibilityMiles, Mean VisibilityMiles, Min VisibilityMiles, Max Wind SpeedMPH, Mean Wind SpeedMPH, Max Gust SpeedMPH,PrecipitationIn, CloudCover, Events, WindDirDegrees
2012-9-1,83,66,48,50,43,32,89,53,16,30.37,30.26,30.17,10,10,7,28,4,43,0.00,4,,264
2012-9-2,76,62,48,52,44,32,97,58,20,30.38,30.31,30.24,10,10,7,16,3,26,0.00,3,,254
2012-9-3,77,61,45,48,37,21,92,49,12,30.37,30.31,30.26,10,10,10,30,5,37,0.00,1,,116
2012-9-4,81,62,42,36,19,-11,78,32,4,30.33,30.27,30.20,10,10,10,22,3,33,0.00,1,,239
2012-9-5,80,60,39,26,13,-7,59,23,4,30.34,30.26,30.18,10,10,10,21,4,26,0.00,0,,219
2012-9-6,78,58,39,30,19,7,52,24,7,30.27,30.21,30.14,10,10,10,20,3,29,0.00,3,,245
2012-9-7,74,63,51,34,27,12,45,28,9,30.43,30.33,30.23,10,10,10,17,4,24,0.00,5,,259
2012-9-8,79,57,35,30,15,-12,71,30,4,30.48,30.40,30.31,10,10,10,9,1,17,0.00,0,,223
2012-9-9,82,60,37,23,16,7,54,22,6,30.40,30.31,30.19,10,10,10,12,1,24,0.00,0,,236
2012-9-10,81,60,40,33,25,16,58,29,9,30.27,30.20,30.11,10,10,10,13,2,20,0.00,1,,234
2012-9-11,66,54,43,52,42,32,97,67,30,30.21,30.17,30.14,10,10,4,12,2,17,0.00,5,,212
2012-9-12,68,56,45,50,38,20,98,62,19,30.39,30.27,30.20,10,9,0,13,2,17,0.00,3,,223
2012-9-13,73,53,33,32,22,5,84,39,7,30.54,30.48,30.39,10,10,7,12,1,,0.00,0,,217
2012-9-14,79,57,35,27,16,-2,66,29,4,30.54,30.45,30.36,10,10,10,14,1,17,0.00,0,,204
2012-9-15,78,56,35,25,10,-22,61,25,4,30.44,30.36,30.28,10,10,10,20,2,28,0.00,0,,230
2012-9-16,77,56,35,26,10,-2,48,20,5,30.33,30.25,30.16,10,10,10,22,3,28,0.00,1,,262
2012-9-17,69,58,43,37,24,10,61,31,10,30.27,30.22,30.17,10,10,7,17,4,23,0.00,2,,273
2012-9-18,72,52,32,25,19,10,71,34,9,30.38,30.31,30.25,10,10,10,14,3,22,0.00,0,,228
2012-9-19,75,54,33,24,17,6,67,30,7,30.38,30.32,30.26,10,10,10,10,1,,0.00,0,,221
2012-9-20,76,54,32,23,16,7,66,28,7,30.34,30.30,30.24,10,10,10,15,2,25,0.00,0,,227
2012-9-21,76,55,34,23,17,8,64,28,7,30.37,30.31,30.24,10,10,7,10,1,,0.00,0,,203
2012-9-22,78,57,36,24,12,-10,56,24,4,30.36,30.31,30.24,10,10,10,15,1,21,0.00,0,,251
2012-9-23,78,57,36,29,18,7,52,24,7,30.35,30.29,30.23,10,10,10,17,2,24,0.00,2,,227
2012-9-24,64,56,49,42,37,28,71,51,26,30.29,30.21,30.11,10,10,10,12,5,25,0.00,5,,78
2012-9-25,66,52,39,47,37,29,95,62,25,30.16,30.11,30.04,10,10,5,16,2,22,0.00,5,,222
2012-9-26,62,54,45,46,41,31,97,71,32,30.25,30.18,30.13,10,9,4,7,1,,0.00,7,,287
2012-9-27,60,51,42,43,39,32,95,67,34,30.31,30.28,30.24,10,10,10,10,2,,0.00,6,,9
2012-9-28,70,53,36,38,31,10,97,55,10,30.32,30.26,30.17,10,10,10,9,1,,0.00,1,,231
2012-9-29,71,52,34,33,28,12,85,46,10,30.32,30.27,30.22,10,10,10,21,2,25,0.00,2,,246
2012-9-30,70,54,37,34,30,21,81,45,15,30.37,30.31,30.26,10,10,10,14,2,20,0.00,3,,238